| time (UTC) | temp F | wind direction | speed MPH | gust MPH | rain 1hr in | rain 24hr in | rain mn in | humidity % | barometer mb |
| 20260906161522 | 92 | 134 | 0.0 | 3.0 | 0.00 | 0.00 | 0.00 | 34 | 1008.5 |
| 20260906161021 | 91 | 126 | 0.0 | 2.0 | 0.00 | 0.00 | 0.00 | 35 | 1008.6 |
| 20260906160519 | 91 | 162 | 0.0 | 2.0 | 0.00 | 0.00 | 0.00 | 36 | 1008.5 |
| 20260906160018 | 90 | 12 | 0.0 | 2.0 | 0.00 | 0.00 | 0.00 | 37 | 1008.6 |
| 20260906155523 | 90 | 167 | 0.0 | 3.0 | 0.00 | 0.00 | 0.00 | 38 | 1008.6 |
| 20260906155014 | 90 | 148 | 0.0 | 3.0 | 0.00 | 0.00 | 0.00 | 38 | 1008.7 |
| 20260906154520 | 89 | 184 | 1.0 | 3.0 | 0.00 | 0.00 | 0.00 | 38 | 1008.7 |
| 20260906154014 | 89 | 109 | 1.0 | 5.0 | 0.00 | 0.00 | 0.00 | 38 | 1008.7 |
| 20260906153512 | 89 | 105 | 2.0 | 5.0 | 0.00 | 0.00 | 0.00 | 38 | 1008.7 |
| 20260906153016 | 89 | 141 | 0.0 | 3.0 | 0.00 | 0.00 | 0.00 | 38 | 1008.6 |
| 20260906152513 | 89 | 138 | 1.0 | 3.0 | 0.00 | 0.00 | 0.00 | 38 | 1008.6 |
| 20260906152011 | 88 | 140 | 0.0 | 2.0 | 0.00 | 0.00 | 0.00 | 39 | 1008.6 |
| 20260906151508 | 88 | 175 | 0.0 | 2.0 | 0.00 | 0.00 | 0.00 | 39 | 1008.5 |
| 20260906151006 | 88 | 130 | 0.0 | 2.0 | 0.00 | 0.00 | 0.00 | 39 | 1008.5 |
| 20260906150506 | 87 | 159 | 0.0 | 4.0 | 0.00 | 0.00 | 0.00 | 40 | 1008.5 |
| 20260906150005 | 87 | 153 | 0.0 | 4.0 | 0.00 | 0.00 | 0.00 | 40 | 1008.5 |
| 20260906145505 | 87 | 130 | 1.0 | 3.0 | 0.00 | 0.00 | 0.00 | 40 | 1008.4 |
| 20260906145002 | 85 | 126 | 0.0 | 2.0 | 0.00 | 0.00 | 0.00 | 42 | 1008.3 |
| 20260906144500 | 85 | 119 | 0.0 | 2.0 | 0.00 | 0.00 | 0.00 | 42 | 1008.3 |
| 20260906144100 | 84 | 125 | 0.0 | 2.0 | 0.00 | 0.00 | 0.00 | 45 | 1008.3 |
| 20260906143559 | 84 | 228 | 0.0 | 1.0 | 0.00 | 0.00 | 0.00 | 47 | 1008.3 |
| 20260906143128 | 83 | 228 | 0.0 | 1.0 | 0.00 | 0.00 | 0.00 | 47 | 1008.2 |
| 20260906142600 | 83 | 228 | 0.0 | 2.0 | 0.00 | 0.00 | 0.00 | 46 | 1008.2 |
| 20260906142057 | 83 | 228 | 0.0 | 2.0 | 0.00 | 0.00 | 0.00 | 48 | 1008.2 |
| 20260906141555 | 82 | 157 | 0.0 | 2.0 | 0.00 | 0.00 | 0.00 | 49 | 1008.0 |
| 20260906141056 | 82 | 157 | 0.0 | 2.0 | 0.00 | 0.00 | 0.00 | 52 | 1008.0 |
| 20260906140555 | 81 | 157 | 0.0 | 0.0 | 0.00 | 0.00 | 0.00 | 50 | 1007.9 |
| 20260906140054 | 81 | 157 | 0.0 | 2.0 | 0.00 | 0.00 | 0.00 | 47 | 1008.0 |
| 20260906135553 | 81 | 157 | 0.0 | 2.0 | 0.00 | 0.00 | 0.00 | 47 | 1007.9 |
| 20260906135054 | 80 | 188 | 0.0 | 0.0 | 0.00 | 0.00 | 0.00 | 47 | 1007.9 |
| 20260906134558 | 80 | 188 | 0.0 | 2.0 | 0.00 | 0.00 | 0.00 | 48 | 1007.9 |
| 20260906134049 | 80 | 271 | 0.0 | 0.0 | 0.00 | 0.00 | 0.00 | 49 | 1007.9 |
| 20260906133551 | 80 | 271 | 0.0 | 0.0 | 0.00 | 0.00 | 0.00 | 45 | 1007.8 |
| 20260906133049 | 80 | 271 | 0.0 | 0.0 | 0.00 | 0.00 | 0.00 | 44 | 1007.8 |
| 20260906132547 | 80 | 271 | 0.0 | 0.0 | 0.00 | 0.00 | 0.00 | 44 | 1007.8 |
| 20260906132046 | 80 | 41 | 0.0 | 4.0 | 0.00 | 0.00 | 0.00 | 47 | 1007.7 |
| 20260906131549 | 80 | 41 | 2.0 | 4.0 | 0.00 | 0.00 | 0.00 | 44 | 1007.6 |
| 20260906131045 | 80 | 24 | 0.0 | 3.0 | 0.00 | 0.00 | 0.00 | 47 | 1007.6 |
| 20260906130545 | 80 | 57 | 0.0 | 4.0 | 0.00 | 0.00 | 0.00 | 46 | 1007.6 |
| 20260906130051 | 80 | 71 | 1.0 | 4.0 | 0.00 | 0.00 | 0.00 | 45 | 1007.6 |
| 20260906125545 | 80 | 61 | 1.0 | 3.0 | 0.00 | 0.00 | 0.00 | 44 | 1007.5 |
| 20260906125045 | 81 | 38 | 0.0 | 3.0 | 0.00 | 0.00 | 0.00 | 45 | 1007.5 |
| 20260906124547 | 81 | 65 | 1.0 | 3.0 | 0.00 | 0.00 | 0.00 | 43 | 1007.4 |
| 20260906124045 | 81 | 314 | 0.0 | 0.0 | 0.00 | 0.00 | 0.00 | 45 | 1007.4 |
| 20260906123545 | 81 | 295 | 0.0 | 0.0 | 0.00 | 0.00 | 0.00 | 46 | 1007.3 |
| 20260906123112 | 81 | 295 | 0.0 | 0.0 | 0.00 | 0.00 | 0.00 | 45 | 1007.3 |
| 20260906122543 | 80 | 295 | 0.0 | 2.0 | 0.00 | 0.00 | 0.00 | 45 | 1007.3 |
| 20260906122044 | 80 | 295 | 0.0 | 4.0 | 0.00 | 0.00 | 0.00 | 45 | 1007.2 |
| 20260906121544 | 80 | 295 | 1.0 | 4.0 | 0.00 | 0.00 | 0.00 | 47 | 1007.3 |
| 20260906121043 | 80 | 122 | 0.0 | 2.0 | 0.00 | 0.00 | 0.00 | 44 | 1007.2 |
| 20260906120543 | 80 | 298 | 0.0 | 0.0 | 0.00 | 0.00 | 0.00 | 45 | 1007.4 |
| 20260906120043 | 80 | 298 | 0.0 | 0.0 | 0.00 | 0.00 | 0.00 | 47 | 1007.3 |
| 20260906115542 | 80 | 298 | 0.0 | 0.0 | 0.00 | 0.00 | 0.00 | 45 | 1007.3 |
| 20260906115042 | 80 | 298 | 0.0 | 0.0 | 0.00 | 0.00 | 0.00 | 47 | 1007.3 |
| 20260906114541 | 81 | 298 | 0.0 | 0.0 | 0.00 | 0.00 | 0.00 | 45 | 1007.3 |
| 20260906114043 | 81 | 298 | 0.0 | 0.0 | 0.00 | 0.00 | 0.00 | 48 | 1007.3 |
| 20260906113540 | 81 | 298 | 0.0 | 1.0 | 0.00 | 0.00 | 0.00 | 46 | 1007.3 |
| 20260906113042 | 81 | 298 | 0.0 | 1.0 | 0.00 | 0.00 | 0.00 | 46 | 1007.2 |
| 20260906112538 | 81 | 298 | 0.0 | 0.0 | 0.00 | 0.00 | 0.00 | 43 | 1007.2 |
| 20260906112038 | 81 | 298 | 0.0 | 0.0 | 0.00 | 0.00 | 0.00 | 44 | 1007.2 |
| 20260906111538 | 82 | 298 | 0.0 | 0.0 | 0.00 | 0.00 | 0.00 | 44 | 1007.2 |
| 20260906111037 | 82 | 298 | 0.0 | 0.0 | 0.00 | 0.00 | 0.00 | 45 | 1007.2 |
| 20260906110536 | 82 | 298 | 0.0 | 2.0 | 0.00 | 0.00 | 0.00 | 45 | 1007.2 |
| 20260906110036 | 82 | 298 | 0.0 | 2.0 | 0.00 | 0.00 | 0.00 | 42 | 1007.2 |
| 20260906105535 | 82 | 298 | 0.0 | 2.0 | 0.00 | 0.00 | 0.00 | 42 | 1007.3 |
| 20260906105034 | 82 | 298 | 0.0 | 2.0 | 0.00 | 0.00 | 0.00 | 44 | 1007.3 |
| 20260906104534 | 82 | 298 | 0.0 | 2.0 | 0.00 | 0.00 | 0.00 | 42 | 1007.3 |
| 20260906104037 | 82 | 298 | 0.0 | 0.0 | 0.00 | 0.00 | 0.00 | 44 | 1007.3 |
| 20260906103535 | 82 | 298 | 0.0 | 0.0 | 0.00 | 0.00 | 0.00 | 41 | 1007.3 |
| 20260906103033 | 82 | 298 | 0.0 | 0.0 | 0.00 | 0.00 | 0.00 | 43 | 1007.3 |
| 20260906102534 | 82 | 298 | 0.0 | 0.0 | 0.00 | 0.00 | 0.00 | 41 | 1007.3 |
| 20260906102033 | 82 | 298 | 0.0 | 2.0 | 0.00 | 0.00 | 0.00 | 41 | 1007.2 |
| 20260906101533 | 82 | 298 | 0.0 | 2.0 | 0.00 | 0.00 | 0.00 | 42 | 1007.1 |
| 20260906101032 | 82 | 298 | 0.0 | 2.0 | 0.00 | 0.00 | 0.00 | 42 | 1007.1 |
| 20260906100534 | 82 | 298 | 0.0 | 2.0 | 0.00 | 0.00 | 0.00 | 43 | 1007.1 |
| 20260906100032 | 83 | 298 | 0.0 | 0.0 | 0.00 | 0.00 | 0.00 | 42 | 1007.1 |
| 20260906095532 | 83 | 298 | 0.0 | 1.0 | 0.00 | 0.00 | 0.00 | 45 | 1007.2 |
| 20260906095034 | 83 | 298 | 0.0 | 1.0 | 0.00 | 0.00 | 0.00 | 44 | 1007.1 |
| 20260906094530 | 83 | 298 | 0.0 | 2.0 | 0.00 | 0.00 | 0.00 | 44 | 1007.1 |
| 20260906094030 | 83 | 298 | 0.0 | 2.0 | 0.00 | 0.00 | 0.00 | 43 | 1007.0 |
| 20260906093530 | 83 | 298 | 0.0 | 2.0 | 0.00 | 0.00 | 0.00 | 40 | 1007.0 |
| 20260906093029 | 83 | 298 | 0.0 | 2.0 | 0.00 | 0.00 | 0.00 | 40 | 1007.0 |
| 20260906092527 | 84 | 298 | 0.0 | 0.0 | 0.00 | 0.00 | 0.00 | 42 | 1007.0 |
| 20260906092026 | 84 | 298 | 0.0 | 0.0 | 0.00 | 0.00 | 0.00 | 42 | 1007.0 |
| 20260906091532 | 84 | 298 | 0.0 | 2.0 | 0.00 | 0.00 | 0.00 | 41 | 1007.1 |
| 20260906091025 | 84 | 298 | 0.0 | 2.0 | 0.00 | 0.00 | 0.00 | 40 | 1007.1 |
| 20260906090524 | 84 | 298 | 0.0 | 2.0 | 0.00 | 0.00 | 0.00 | 42 | 1007.1 |
| 20260906090024 | 84 | 298 | 0.0 | 2.0 | 0.00 | 0.00 | 0.00 | 42 | 1007.1 |
| 20260906085527 | 85 | 298 | 0.0 | 2.0 | 0.00 | 0.00 | 0.00 | 41 | 1007.1 |
| 20260906085023 | 85 | 159 | 0.0 | 2.0 | 0.00 | 0.00 | 0.00 | 39 | 1007.1 |
| 20260906084523 | 85 | 326 | 0.0 | 2.0 | 0.00 | 0.00 | 0.00 | 38 | 1007.2 |
| 20260906084026 | 85 | 326 | 0.0 | 2.0 | 0.00 | 0.00 | 0.00 | 38 | 1007.2 |
| 20260906083524 | 85 | 326 | 0.0 | 1.0 | 0.00 | 0.00 | 0.00 | 39 | 1007.3 |
| 20260906083027 | 85 | 315 | 0.0 | 0.0 | 0.00 | 0.00 | 0.00 | 39 | 1007.2 |
| 20260906082522 | 85 | 315 | 0.0 | 0.0 | 0.00 | 0.00 | 0.00 | 41 | 1007.2 |
| 20260906082022 | 85 | 315 | 0.0 | 0.0 | 0.00 | 0.00 | 0.00 | 37 | 1007.2 |
| 20260906081521 | 85 | 315 | 0.0 | 2.0 | 0.00 | 0.00 | 0.00 | 37 | 1007.2 |
| 20260906081021 | 85 | 310 | 0.0 | 2.0 | 0.00 | 0.00 | 0.00 | 37 | 1007.3 |
| 20260906080522 | 85 | 62 | 0.0 | 0.0 | 0.00 | 0.00 | 0.00 | 40 | 1007.3 |
| 20260906080028 | 85 | 62 | 0.0 | 2.0 | 0.00 | 0.00 | 0.00 | 42 | 1007.4 |
| 20260906075519 | 85 | 62 | 0.0 | 2.0 | 0.00 | 0.00 | 0.00 | 37 | 1007.5 |
| 20260906075019 | 86 | 62 | 0.0 | 0.0 | 0.00 | 0.00 | 0.00 | 37 | 1007.5 |
| 20260906074519 | 86 | 62 | 0.0 | 0.0 | 0.00 | 0.00 | 0.00 | 39 | 1007.5 |
| 20260906074019 | 86 | 62 | 0.0 | 0.0 | 0.00 | 0.00 | 0.00 | 37 | 1007.5 |
| 20260906073518 | 86 | 62 | 0.0 | 0.0 | 0.00 | 0.00 | 0.00 | 37 | 1007.6 |
| 20260906073018 | 86 | 62 | 0.0 | 2.0 | 0.00 | 0.00 | 0.00 | 38 | 1007.6 |
| 20260906072516 | 86 | 62 | 0.0 | 3.0 | 0.00 | 0.00 | 0.00 | 37 | 1007.7 |
| 20260906072016 | 86 | 57 | 0.0 | 4.0 | 0.00 | 0.00 | 0.00 | 38 | 1007.7 |
| 20260906071514 | 85 | 29 | 0.0 | 4.0 | 0.00 | 0.00 | 0.00 | 40 | 1007.7 |
| 20260906071015 | 85 | 33 | 0.0 | 2.0 | 0.00 | 0.00 | 0.00 | 41 | 1007.8 |
| 20260906070512 | 85 | 5 | 0.0 | 0.0 | 0.00 | 0.00 | 0.00 | 42 | 1007.8 |
| 20260906070011 | 85 | 5 | 0.0 | 0.0 | 0.00 | 0.00 | 0.00 | 44 | 1007.9 |
| 20260906065511 | 85 | 5 | 0.0 | 0.0 | 0.00 | 0.00 | 0.00 | 45 | 1007.9 |
| 20260906065011 | 85 | 5 | 0.0 | 0.0 | 0.00 | 0.00 | 0.00 | 44 | 1007.9 |
| 20260906064511 | 85 | 5 | 0.0 | 0.0 | 0.00 | 0.00 | 0.00 | 43 | 1007.8 |
| 20260906064011 | 85 | 5 | 0.0 | 0.0 | 0.00 | 0.00 | 0.00 | 44 | 1007.8 |
| 20260906063510 | 85 | 5 | 0.0 | 0.0 | 0.00 | 0.00 | 0.00 | 39 | 1007.8 |
| 20260906063010 | 85 | 5 | 0.0 | 0.0 | 0.00 | 0.00 | 0.00 | 41 | 1007.8 |
| 20260906062509 | 85 | 5 | 0.0 | 0.0 | 0.00 | 0.00 | 0.00 | 42 | 1007.8 |
| 20260906062010 | 85 | 111 | 0.0 | 0.0 | 0.00 | 0.00 | 0.00 | 40 | 1007.8 |
| 20260906061510 | 85 | 111 | 0.0 | 2.0 | 0.00 | 0.00 | 0.00 | 41 | 1007.8 |
| 20260906061009 | 86 | 40 | 0.0 | 2.0 | 0.00 | 0.00 | 0.00 | 43 | 1007.8 |
| 20260906060511 | 86 | 257 | 0.0 | 0.0 | 0.00 | 0.00 | 0.00 | 45 | 1007.7 |
| 20260906060008 | 86 | 257 | 0.0 | 0.0 | 0.00 | 0.00 | 0.00 | 48 | 1007.7 |
| 20260906055510 | 87 | 257 | 0.0 | 0.0 | 0.00 | 0.00 | 0.00 | 44 | 1007.8 |
| 20260906055008 | 87 | 257 | 0.0 | 0.0 | 0.00 | 0.00 | 0.00 | 44 | 1007.8 |
| 20260906054509 | 87 | 257 | 0.0 | 0.0 | 0.00 | 0.00 | 0.00 | 40 | 1007.8 |
| 20260906054009 | 87 | 257 | 0.0 | 0.0 | 0.00 | 0.00 | 0.00 | 44 | 1007.8 |
| 20260906053512 | 87 | 257 | 0.0 | 0.0 | 0.00 | 0.00 | 0.00 | 39 | 1007.9 |
| 20260906053008 | 87 | 257 | 0.0 | 0.0 | 0.00 | 0.00 | 0.00 | 37 | 1007.9 |
| 20260906052508 | 87 | 257 | 0.0 | 0.0 | 0.00 | 0.00 | 0.00 | 36 | 1007.8 |
| 20260906052009 | 87 | 257 | 0.0 | 0.0 | 0.00 | 0.00 | 0.00 | 41 | 1007.8 |
| 20260906051507 | 87 | 257 | 0.0 | 0.0 | 0.00 | 0.00 | 0.00 | 40 | 1007.8 |
| 20260906051009 | 87 | 257 | 0.0 | 1.0 | 0.00 | 0.00 | 0.00 | 42 | 1007.8 |
| 20260906050509 | 87 | 257 | 0.0 | 2.0 | 0.00 | 0.00 | 0.00 | 40 | 1007.9 |
| 20260906050008 | 87 | 257 | 0.0 | 2.0 | 0.00 | 0.00 | 0.00 | 36 | 1007.9 |
| 20260906045510 | 87 | 257 | 0.0 | 0.0 | 0.00 | 0.00 | 0.00 | 36 | 1007.9 |
| 20260906045008 | 87 | 257 | 0.0 | 0.0 | 0.00 | 0.00 | 0.00 | 44 | 1007.9 |
| 20260906044507 | 87 | 257 | 0.0 | 0.0 | 0.00 | 0.00 | 0.00 | 44 | 1007.9 |
| 20260906044010 | 87 | 257 | 0.0 | 0.0 | 0.00 | 0.00 | 0.00 | 39 | 1007.9 |
| 20260906043506 | 88 | 257 | 0.0 | 2.0 | 0.00 | 0.00 | 0.00 | 41 | 1008.0 |
| 20260906043006 | 88 | 257 | 0.0 | 2.0 | 0.00 | 0.00 | 0.00 | 36 | 1007.9 |
| 20260906042505 | 88 | 257 | 0.0 | 2.0 | 0.00 | 0.00 | 0.00 | 43 | 1008.0 |
| 20260906042005 | 88 | 257 | 0.0 | 0.0 | 0.00 | 0.00 | 0.00 | 38 | 1008.0 |
| 20260906041506 | 88 | 257 | 0.0 | 0.0 | 0.00 | 0.00 | 0.00 | 35 | 1008.0 |
| 20260906041008 | 88 | 257 | 0.0 | 0.0 | 0.00 | 0.00 | 0.00 | 36 | 1008.1 |
| 20260906040505 | 88 | 257 | 0.0 | 0.0 | 0.00 | 0.00 | 0.00 | 35 | 1008.0 |
| 20260906040008 | 89 | 257 | 0.0 | 0.0 | 0.00 | 0.00 | 0.00 | 38 | 1008.1 |
| 20260906035507 | 89 | 257 | 0.0 | 0.0 | 0.00 | 0.00 | 0.00 | 39 | 1008.0 |
| 20260906035005 | 89 | 257 | 0.0 | 0.0 | 0.00 | 0.00 | 0.00 | 38 | 1008.0 |
| 20260906034505 | 89 | 257 | 0.0 | 0.0 | 0.00 | 0.00 | 0.00 | 36 | 1007.9 |
| 20260906034004 | 90 | 257 | 0.0 | 0.0 | 0.00 | 0.00 | 0.00 | 36 | 1007.8 |
| 20260906033505 | 90 | 257 | 0.0 | 0.0 | 0.00 | 0.00 | 0.00 | 38 | 1007.7 |
| 20260906033012 | 90 | 257 | 0.0 | 0.0 | 0.00 | 0.00 | 0.00 | 36 | 1007.7 |
| 20260906032503 | 90 | 257 | 0.0 | 0.0 | 0.00 | 0.00 | 0.00 | 37 | 1007.5 |
| 20260906032004 | 90 | 257 | 0.0 | 0.0 | 0.00 | 0.00 | 0.00 | 35 | 1007.5 |
| 20260906031503 | 91 | 257 | 0.0 | 0.0 | 0.00 | 0.00 | 0.00 | 35 | 1007.4 |
| 20260906031004 | 91 | 257 | 0.0 | 0.0 | 0.00 | 0.00 | 0.00 | 35 | 1007.4 |
| 20260906030504 | 91 | 257 | 0.0 | 2.0 | 0.00 | 0.00 | 0.00 | 33 | 1007.3 |
| 20260906030004 | 91 | 257 | 0.0 | 2.0 | 0.00 | 0.00 | 0.00 | 32 | 1007.3 |
| 20260906025503 | 91 | 257 | 0.0 | 0.0 | 0.00 | 0.00 | 0.00 | 33 | 1007.2 |
| 20260906025004 | 92 | 257 | 0.0 | 0.0 | 0.00 | 0.00 | 0.00 | 33 | 1007.2 |
| 20260906024502 | 92 | 257 | 0.0 | 0.0 | 0.00 | 0.00 | 0.00 | 33 | 1007.2 |
| 20260906024003 | 92 | 257 | 0.0 | 0.0 | 0.00 | 0.00 | 0.00 | 31 | 1007.1 |
| 20260906023504 | 92 | 257 | 0.0 | 2.0 | 0.00 | 0.00 | 0.00 | 31 | 1007.2 |
| 20260906023002 | 92 | 257 | 0.0 | 2.0 | 0.00 | 0.00 | 0.00 | 30 | 1007.1 |
| 20260906022505 | 92 | 302 | 0.0 | 2.0 | 0.00 | 0.00 | 0.00 | 30 | 1007.1 |
| 20260906022003 | 92 | 302 | 0.0 | 2.0 | 0.00 | 0.00 | 0.00 | 29 | 1007.1 |
| 20260906021502 | 93 | 275 | 0.0 | 4.0 | 0.00 | 0.00 | 0.00 | 29 | 1007.2 |
| 20260906021001 | 93 | 293 | 2.0 | 4.0 | 0.00 | 0.00 | 0.00 | 29 | 1007.2 |
| 20260906020602 | 93 | 304 | 1.0 | 5.0 | 0.00 | 0.00 | 0.00 | 29 | 1007.2 |
| 20260906020107 | 93 | 311 | 2.0 | 5.0 | 0.00 | 0.00 | 0.00 | 29 | 1007.3 |
| 20260906015601 | 93 | 315 | 2.0 | 5.0 | 0.00 | 0.00 | 0.00 | 29 | 1007.3 |
| 20260906015059 | 93 | 304 | 3.0 | 8.0 | 0.00 | 0.00 | 0.00 | 29 | 1007.3 |
| 20260906014602 | 93 | 329 | 2.0 | 8.0 | 0.00 | 0.00 | 0.00 | 29 | 1007.4 |
| 20260906014059 | 93 | 311 | 1.0 | 5.0 | 0.00 | 0.00 | 0.00 | 29 | 1007.4 |
| 20260906013601 | 94 | 331 | 2.0 | 5.0 | 0.00 | 0.00 | 0.00 | 29 | 1007.4 |
| 20260906013109 | 94 | 284 | 2.0 | 8.0 | 0.00 | 0.00 | 0.00 | 29 | 1007.5 |
| 20260906012559 | 94 | 286 | 4.0 | 9.0 | 0.00 | 0.00 | 0.00 | 29 | 1007.5 |
| 20260906012058 | 94 | 297 | 6.0 | 9.0 | 0.00 | 0.00 | 0.00 | 28 | 1007.6 |
| 20260906011606 | 94 | 294 | 4.0 | 9.0 | 0.00 | 0.00 | 0.00 | 28 | 1007.5 |
| 20260906011058 | 94 | 261 | 5.0 | 11.0 | 0.00 | 0.00 | 0.00 | 28 | 1007.4 |
| 20260906010557 | 94 | 310 | 7.0 | 11.0 | 0.00 | 0.00 | 0.00 | 28 | 1007.5 |
| 20260906010059 | 95 | 302 | 5.0 | 9.0 | 0.00 | 0.00 | 0.00 | 28 | 1007.5 |
| 20260906005557 | 95 | 301 | 5.0 | 9.0 | 0.00 | 0.00 | 0.00 | 28 | 1007.5 |
| 20260906005057 | 95 | 265 | 3.0 | 9.0 | 0.00 | 0.00 | 0.00 | 28 | 1007.4 |
| 20260906004604 | 95 | 292 | 4.0 | 8.0 | 0.00 | 0.00 | 0.00 | 27 | 1007.4 |
| 20260906004057 | 95 | 293 | 3.0 | 7.0 | 0.00 | 0.00 | 0.00 | 27 | 1007.3 |
| 20260906003558 | 95 | 321 | 2.0 | 9.0 | 0.00 | 0.00 | 0.00 | 27 | 1007.4 |
| 20260906003103 | 95 | 338 | 3.0 | 9.0 | 0.00 | 0.00 | 0.00 | 28 | 1007.4 |
| 20260906002556 | 96 | 296 | 3.0 | 10.0 | 0.00 | 0.00 | 0.00 | 27 | 1007.3 |
| 20260906002056 | 96 | 322 | 5.0 | 10.0 | 0.00 | 0.00 | 0.00 | 27 | 1007.4 |
| 20260906001556 | 96 | 301 | 2.0 | 8.0 | 0.00 | 0.00 | 0.00 | 27 | 1007.3 |
| 20260906001057 | 96 | 343 | 4.0 | 12.0 | 0.00 | 0.00 | 0.00 | 26 | 1007.3 |
| 20260906000555 | 97 | 319 | 6.0 | 12.0 | 0.00 | 0.00 | 0.00 | 26 | 1007.3 |
| 20260906000058 | 97 | 292 | 2.0 | 12.0 | 0.00 | 0.00 | 0.00 | 27 | 1007.4 |
| 20260905235556 | 97 | 276 | 6.0 | 12.0 | 0.00 | 0.00 | 0.00 | 26 | 1007.5 |
| 20260905235056 | 98 | 270 | 5.0 | 10.0 | 0.00 | 0.00 | 0.00 | 26 | 1007.4 |
| 20260905234556 | 98 | 324 | 6.0 | 10.0 | 0.00 | 0.00 | 0.00 | 26 | 1007.4 |
| 20260905234056 | 98 | 313 | 2.0 | 9.0 | 0.00 | 0.00 | 0.00 | 26 | 1007.3 |
| 20260905233556 | 98 | 281 | 3.0 | 10.0 | 0.00 | 0.00 | 0.00 | 25 | 1007.3 |
| 20260905233054 | 98 | 289 | 6.0 | 10.0 | 0.00 | 0.00 | 0.00 | 25 | 1007.3 |
| 20260905232554 | 98 | 301 | 6.0 | 10.0 | 0.00 | 0.00 | 0.00 | 25 | 1007.3 |
| 20260905232054 | 98 | 290 | 3.0 | 10.0 | 0.00 | 0.00 | 0.00 | 25 | 1007.3 |
| 20260905231554 | 98 | 281 | 4.0 | 11.0 | 0.00 | 0.00 | 0.00 | 25 | 1007.3 |
| 20260905231053 | 99 | 274 | 5.0 | 11.0 | 0.00 | 0.00 | 0.00 | 24 | 1007.3 |
| 20260905230553 | 99 | 304 | 1.0 | 7.0 | 0.00 | 0.00 | 0.00 | 24 | 1007.4 |
| 20260905230054 | 99 | 300 | 3.0 | 9.0 | 0.00 | 0.00 | 0.00 | 24 | 1007.4 |
| 20260905225553 | 100 | 294 | 5.0 | 10.0 | 0.00 | 0.00 | 0.00 | 23 | 1007.4 |
| 20260905225052 | 100 | 257 | 2.0 | 10.0 | 0.00 | 0.00 | 0.00 | 23 | 1007.4 |
| 20260905224555 | 101 | 261 | 6.0 | 10.0 | 0.00 | 0.00 | 0.00 | 23 | 1007.5 |
| 20260905224052 | 101 | 309 | 2.0 | 8.0 | 0.00 | 0.00 | 0.00 | 23 | 1007.4 |
| 20260905223553 | 101 | 281 | 2.0 | 8.0 | 0.00 | 0.00 | 0.00 | 23 | 1007.4 |
| 20260905223051 | 100 | 286 | 1.0 | 8.0 | 0.00 | 0.00 | 0.00 | 23 | 1007.5 |
| 20260905222549 | 100 | 323 | 4.0 | 7.0 | 0.00 | 0.00 | 0.00 | 23 | 1007.5 |
| 20260905222049 | 101 | 250 | 1.0 | 6.0 | 0.00 | 0.00 | 0.00 | 23 | 1007.6 |
| 20260905221549 | 100 | 319 | 1.0 | 7.0 | 0.00 | 0.00 | 0.00 | 23 | 1007.7 |
| 20260905221049 | 100 | 196 | 2.0 | 9.0 | 0.00 | 0.00 | 0.00 | 23 | 1007.8 |
| 20260905220549 | 99 | 183 | 3.0 | 9.0 | 0.00 | 0.00 | 0.00 | 25 | 1007.9 |
| 20260905220049 | 99 | 231 | 3.0 | 8.0 | 0.00 | 0.00 | 0.00 | 24 | 1008.0 |
| 20260905215548 | 98 | 246 | 3.0 | 7.0 | 0.00 | 0.00 | 0.00 | 25 | 1008.1 |
| 20260905215048 | 98 | 255 | 1.0 | 8.0 | 0.00 | 0.00 | 0.00 | 24 | 1008.1 |
| 20260905214548 | 98 | 321 | 4.0 | 8.0 | 0.00 | 0.00 | 0.00 | 24 | 1008.2 |
| 20260905214048 | 98 | 266 | 3.0 | 8.0 | 0.00 | 0.00 | 0.00 | 25 | 1008.2 |
| 20260905213547 | 98 | 329 | 0.0 | 4.0 | 0.00 | 0.00 | 0.00 | 25 | 1008.3 |
| 20260905213048 | 98 | 242 | 0.0 | 7.0 | 0.00 | 0.00 | 0.00 | 24 | 1008.3 |
| 20260905212548 | 98 | 269 | 1.0 | 7.0 | 0.00 | 0.00 | 0.00 | 24 | 1008.4 |
| 20260905212048 | 98 | 274 | 1.0 | 7.0 | 0.00 | 0.00 | 0.00 | 24 | 1008.5 |
| 20260905211552 | 98 | 284 | 1.0 | 4.0 | 0.00 | 0.00 | 0.00 | 24 | 1008.5 |
| 20260905211047 | 97 | 242 | 0.0 | 6.0 | 0.00 | 0.00 | 0.00 | 24 | 1008.7 |
| 20260905210548 | 97 | 297 | 2.0 | 8.0 | 0.00 | 0.00 | 0.00 | 24 | 1008.7 |
| 20260905210050 | 98 | 281 | 4.0 | 8.0 | 0.00 | 0.00 | 0.00 | 24 | 1008.7 |
| 20260905205546 | 98 | 329 | 4.0 | 8.0 | 0.00 | 0.00 | 0.00 | 24 | 1008.8 |
| 20260905205047 | 99 | 263 | 4.0 | 8.0 | 0.00 | 0.00 | 0.00 | 23 | 1008.8 |
| 20260905204548 | 99 | 285 | 0.0 | 5.0 | 0.00 | 0.00 | 0.00 | 23 | 1008.8 |
| 20260905204046 | 100 | 307 | 1.0 | 5.0 | 0.00 | 0.00 | 0.00 | 23 | 1008.8 |
| 20260905203546 | 100 | 232 | 1.0 | 5.0 | 0.00 | 0.00 | 0.00 | 23 | 1008.9 |
| 20260905203046 | 99 | 231 | 1.0 | 7.0 | 0.00 | 0.00 | 0.00 | 23 | 1009.0 |
| 20260905202545 | 99 | 265 | 4.0 | 7.0 | 0.00 | 0.00 | 0.00 | 23 | 1009.0 |
| 20260905202046 | 99 | 174 | 1.0 | 8.0 | 0.00 | 0.00 | 0.00 | 23 | 1009.1 |
| 20260905201546 | 99 | 216 | 1.0 | 8.0 | 0.00 | 0.00 | 0.00 | 23 | 1009.1 |
| 20260905201045 | 100 | 196 | 3.0 | 7.0 | 0.00 | 0.00 | 0.00 | 23 | 1009.1 |
| 20260905200545 | 100 | 289 | 1.0 | 8.0 | 0.00 | 0.00 | 0.00 | 23 | 1009.1 |
| 20260905200044 | 100 | 197 | 2.0 | 9.0 | 0.00 | 0.00 | 0.00 | 23 | 1009.3 |
| 20260905195545 | 100 | 164 | 2.0 | 9.0 | 0.00 | 0.00 | 0.00 | 22 | 1009.2 |
| 20260905195045 | 101 | 233 | 0.0 | 5.0 | 0.00 | 0.00 | 0.00 | 23 | 1009.4 |
| 20260905194545 | 101 | 159 | 1.0 | 4.0 | 0.00 | 0.00 | 0.00 | 22 | 1009.4 |
| 20260905194044 | 101 | 138 | 1.0 | 4.0 | 0.00 | 0.00 | 0.00 | 23 | 1009.4 |
| 20260905193545 | 101 | 184 | 1.0 | 5.0 | 0.00 | 0.00 | 0.00 | 23 | 1009.5 |
| 20260905193043 | 101 | 201 | 2.0 | 5.0 | 0.00 | 0.00 | 0.00 | 23 | 1009.5 |
| 20260905192543 | 101 | 200 | 1.0 | 5.0 | 0.00 | 0.00 | 0.00 | 23 | 1009.5 |
| 20260905192046 | 101 | 188 | 1.0 | 5.0 | 0.00 | 0.00 | 0.00 | 23 | 1009.6 |
| 20260905191542 | 101 | 155 | 0.0 | 3.0 | 0.00 | 0.00 | 0.00 | 22 | 1009.8 |
| 20260905191042 | 101 | 123 | 1.0 | 5.0 | 0.00 | 0.00 | 0.00 | 22 | 1009.8 |
| 20260905190543 | 100 | 144 | 1.0 | 5.0 | 0.00 | 0.00 | 0.00 | 22 | 1009.9 |
| 20260905190040 | 100 | 207 | 0.0 | 4.0 | 0.00 | 0.00 | 0.00 | 23 | 1010.0 |
| 20260905185541 | 100 | 185 | 1.0 | 3.0 | 0.00 | 0.00 | 0.00 | 23 | 1010.1 |
| 20260905185040 | 100 | 338 | 1.0 | 4.0 | 0.00 | 0.00 | 0.00 | 23 | 1010.2 |
| 20260905184554 | 100 | 170 | 1.0 | 4.0 | 0.00 | 0.00 | 0.00 | 24 | 1010.2 |
| 20260905184038 | 100 | 143 | 1.0 | 4.0 | 0.00 | 0.00 | 0.00 | 23 | 1010.3 |
| 20260905183537 | 99 | 227 | 0.0 | 7.0 | 0.00 | 0.00 | 0.00 | 24 | 1010.3 |
| 20260905183045 | 99 | 151 | 1.0 | 7.0 | 0.00 | 0.00 | 0.00 | 24 | 1010.4 |
| 20260905182534 | 98 | 141 | 2.0 | 5.0 | 0.00 | 0.00 | 0.00 | 24 | 1010.4 |
| 20260905182034 | 98 | 221 | 2.0 | 5.0 | 0.00 | 0.00 | 0.00 | 24 | 1010.5 |
| 20260905181540 | 98 | 197 | 2.0 | 5.0 | 0.00 | 0.00 | 0.00 | 25 | 1010.5 |
| 20260905181031 | 98 | 200 | 0.0 | 4.0 | 0.00 | 0.00 | 0.00 | 27 | 1010.5 |
| 20260905180531 | 97 | 203 | 1.0 | 5.0 | 0.00 | 0.00 | 0.00 | 26 | 1010.5 |
| 20260905180035 | 97 | 125 | 1.0 | 6.0 | 0.00 | 0.00 | 0.00 | 26 | 1010.6 |
| 20260905175530 | 97 | 171 | 2.0 | 7.0 | 0.00 | 0.00 | 0.00 | 25 | 1010.6 |
| 20260905175029 | 97 | 119 | 2.0 | 7.0 | 0.00 | 0.00 | 0.00 | 25 | 1010.6 |
| 20260905174529 | 97 | 169 | 2.0 | 6.0 | 0.00 | 0.00 | 0.00 | 25 | 1010.6 |
| 20260905174028 | 97 | 193 | 2.0 | 6.0 | 0.00 | 0.00 | 0.00 | 25 | 1010.6 |
| 20260905173527 | 97 | 124 | 1.0 | 5.0 | 0.00 | 0.00 | 0.00 | 27 | 1010.5 |
| 20260905173028 | 96 | 135 | 1.0 | 4.0 | 0.00 | 0.00 | 0.00 | 26 | 1010.5 |
| 20260905172525 | 96 | 171 | 1.0 | 5.0 | 0.00 | 0.00 | 0.00 | 26 | 1010.5 |
| 20260905172025 | 96 | 266 | 1.0 | 5.0 | 0.00 | 0.00 | 0.00 | 26 | 1010.4 |
| 20260905171525 | 96 | 190 | 1.0 | 4.0 | 0.00 | 0.00 | 0.00 | 27 | 1010.4 |
| 20260905171027 | 96 | 140 | 1.0 | 4.0 | 0.00 | 0.00 | 0.00 | 27 | 1010.4 |
| 20260905170522 | 96 | 238 | 0.0 | 4.0 | 0.00 | 0.00 | 0.00 | 28 | 1010.4 |
| 20260905170021 | 95 | 172 | 1.0 | 4.0 | 0.00 | 0.00 | 0.00 | 28 | 1010.4 |
| 20260905165519 | 95 | 176 | 1.0 | 3.0 | 0.00 | 0.00 | 0.00 | 29 | 1010.4 |
| 20260905165018 | 95 | 159 | 0.0 | 5.0 | 0.00 | 0.00 | 0.00 | 28 | 1010.4 |
| 20260905164517 | 95 | 157 | 1.0 | 5.0 | 0.00 | 0.00 | 0.00 | 29 | 1010.3 |
| 20260905164017 | 94 | 161 | 1.0 | 4.0 | 0.00 | 0.00 | 0.00 | 29 | 1010.3 |
| 20260905163515 | 94 | 158 | 1.0 | 4.0 | 0.00 | 0.00 | 0.00 | 30 | 1010.3 |
| 20260905163013 | 93 | 184 | 0.0 | 2.0 | 0.00 | 0.00 | 0.00 | 30 | 1010.3 |
| 20260905162511 | 93 | 153 | 0.0 | 2.0 | 0.00 | 0.00 | 0.00 | 32 | 1010.3 |
| 20260905162010 | 93 | 293 | 1.0 | 2.0 | 0.00 | 0.00 | 0.00 | 32 | 1010.3 |